Leakey, Texas, United States (78873)
Lat: 29.73N, Lon: 99.76W
Wx Zone: TXZ185
Local Info
Past Weather Observations for Wednesday, May 25, 2016

NOTE: This archive is for the closest National Weather Service station to Leakey. Information may differ from the station used for current weather conditions.

Click here for Long-term Archive

Time Weather Temperature Dewpoint Humidity Pressure Winds Precip Visibility
23:55
Fair
75°F / 24°C 73°F / 23°C 94% 30.01 in
(1016 mb)
SSE 16.1 mph
(SSE 26 kph)
-
23:35
Fair
77°F / 25°C 73°F / 23°C 89% 30.01 in
(1016 mb)
SSE 13.8 mph
(SSE 22 kph)
-
23:15
Fair
77°F / 25°C 73°F / 23°C 89% 30.04 in
(1017 mb)
SSE 13.8 mph
(SSE 22 kph)
-
22:55
Fair
77°F / 25°C 73°F / 23°C 89% 30.04 in
(1017 mb)
S 11.5 mph
(S 19 kph)
-
22:35
Fair
77°F / 25°C 73°F / 23°C 89% 30.04 in
(1017 mb)
SSE 11.5 mph
(SSE 19 kph)
-
22:15
Fair
77°F / 25°C 75°F / 24°C 94% 30.04 in
(1017 mb)
SSE 8.1 mph
(SSE 13 kph)
-
21:55
Fair
79°F / 26°C 75°F / 24°C 89% 30.06 in
(1018 mb)
SSE 9.2 mph
(SSE 15 kph)
-
21:35
Fair
79°F / 26°C 75°F / 24°C 89% 30.06 in
(1018 mb)
SSE 9.2 mph
(SSE 15 kph)
-
21:15
Fair
79°F / 26°C 75°F / 24°C 89% 30.04 in
(1017 mb)
SSE 11.5 mph
(SSE 19 kph)
-
20:55
Fair
79°F / 26°C 75°F / 24°C 89% 30.04 in
(1017 mb)
SSE 9.2 mph
(SSE 15 kph)
-
20:35
Fair
79°F / 26°C 75°F / 24°C 89% 30.04 in
(1017 mb)
S 6.9 mph
(S 11 kph)
-
20:15
Fair
79°F / 26°C 75°F / 24°C 89% 30.04 in
(1017 mb)
SSE 8.1 mph
(SSE 13 kph)
-
19:55
Partly Cloudy
79°F / 26°C 73°F / 23°C 84% 30.04 in
(1017 mb)
Calm -
19:35
Fair
79°F / 26°C 75°F / 24°C 89% 30.04 in
(1017 mb)
SSE 5.8 mph
(SSE 9 kph)
-
19:15
Fair
79°F / 26°C 75°F / 24°C 89% 30.04 in
(1017 mb)
SSE 9.2 mph
(SSE 15 kph)
-
18:55
Light Rain
79°F / 26°C 75°F / 24°C 89% 30.04 in
(1017 mb)
SSE 6.9 mph
(SSE 11 kph)
-
18:35
Partly Cloudy
Light Rain
81°F / 27°C 75°F / 24°C 84% 30.04 in
(1017 mb)
Calm -
18:15
Partly Cloudy
81°F / 27°C 75°F / 24°C 84% 30.04 in
(1017 mb)
SSE 6.9 mph
(SSE 11 kph)
-
17:55
Partly Cloudy
81°F / 27°C 75°F / 24°C 84% 30.04 in
(1017 mb)
SSE 6.9 mph
(SSE 11 kph)
-
17:35
Clear
81°F / 27°C 73°F / 23°C 79% 30.04 in
(1017 mb)
S 9.2 mph
(S 15 kph)
-
17:15
Partly Cloudy
81°F / 27°C 73°F / 23°C 79% 30.01 in
(1016 mb)
SSE 10.4 mph
(SSE 17 kph)
-
16:55
Partly Cloudy
81°F / 27°C 73°F / 23°C 79% 30.01 in
(1016 mb)
SSE 11.5 mph
(SSE 19 kph)
-
16:35
Partly Cloudy
81°F / 27°C 75°F / 24°C 84% 30.01 in
(1016 mb)
SSE 11.5 mph
(SSE 19 kph)
-
16:15
Partly Cloudy
81°F / 27°C 75°F / 24°C 84% 30.01 in
(1016 mb)
SSE 10.4 mph
(SSE 17 kph)
-
15:55
Partly Cloudy
81°F / 27°C 73°F / 23°C 79% 30.01 in
(1016 mb)
SSE 11.5 mph
(SSE 19 kph)
0.01 in
(0.25 mm)
15:35
Partly Cloudy
81°F / 27°C 75°F / 24°C 84% 30.04 in
(1017 mb)
SSE 11.5 mph
(SSE 19 kph)
0.01 in
(0.25 mm)
15:15
Partly Cloudy
81°F / 27°C 75°F / 24°C 84% 30.04 in
(1017 mb)
SSE 9.2 mph
(SSE 15 kph)
-
14:55
Partly Cloudy
81°F / 27°C 75°F / 24°C 84% 30.06 in
(1018 mb)
S 6.9 mph
(S 11 kph)
-
14:35
Partly Cloudy
81°F / 27°C 75°F / 24°C 84% 30.06 in
(1018 mb)
S 6.9 mph
(S 11 kph)
-
14:15
Fair
79°F / 26°C 75°F / 24°C 89% 30.06 in
(1018 mb)
SW 4.6 mph
(SW 7 kph)
-
13:55
Fair
75°F / 24°C 75°F / 24°C 100% 30.06 in
(1018 mb)
S 4.6 mph
(S 7 kph)
-
13:35
Mostly Cloudy
75°F / 24°C 75°F / 24°C 100% 30.06 in
(1018 mb)
S 6.9 mph
(S 11 kph)
-
13:15
Overcast
75°F / 24°C 75°F / 24°C 100% 30.06 in
(1018 mb)
S 5.8 mph
(S 9 kph)
-
12:55
Overcast
75°F / 24°C 75°F / 24°C 100% 30.06 in
(1018 mb)
S 4.6 mph
(S 7 kph)
-
12:35
Overcast
75°F / 24°C 75°F / 24°C 100% 30.06 in
(1018 mb)
S 8.1 mph
(S 13 kph)
-
12:15
Overcast
75°F / 24°C 73°F / 23°C 94% 30.09 in
(1019 mb)
S 3.5 mph
(S 6 kph)
-
11:55
Overcast
75°F / 24°C 73°F / 23°C 94% 30.06 in
(1018 mb)
S 6.9 mph
(S 11 kph)
-
11:35
Overcast
75°F / 24°C 73°F / 23°C 94% 30.06 in
(1018 mb)
S 8.1 mph
(S 13 kph)
-
11:15
Overcast
75°F / 24°C 73°F / 23°C 94% 30.06 in
(1018 mb)
S 4.6 mph
(S 7 kph)
-
10:55
Overcast
75°F / 24°C 73°F / 23°C 94% 30.06 in
(1018 mb)
S 10.4 mph
(S 17 kph)
-
10:35
Overcast
73°F / 23°C 73°F / 23°C 100% 30.04 in
(1017 mb)
S 12.7 mph
(S 20 kph)
-
10:15
Overcast
73°F / 23°C 73°F / 23°C 100% 30.04 in
(1017 mb)
S 15 mph
(S 24 kph)
-
09:55
Overcast
73°F / 23°C 73°F / 23°C 100% 30.06 in
(1018 mb)
SSE 11.5 mph
(SSE 19 kph)
-
09:35
Overcast
73°F / 23°C 73°F / 23°C 100% 30.06 in
(1018 mb)
S 13.8 mph
(S 22 kph)
-
09:15
Overcast
73°F / 23°C 73°F / 23°C 100% 30.06 in
(1018 mb)
S 10.4 mph
(S 17 kph)
-
08:55
Overcast
73°F / 23°C 73°F / 23°C 100% 30.06 in
(1018 mb)
S 13.8 mph
(S 22 kph)
-
08:35
Overcast
73°F / 23°C 73°F / 23°C 100% 30.06 in
(1018 mb)
S 10.4 mph
(S 17 kph)
-
08:15
Overcast
73°F / 23°C 73°F / 23°C 100% 30.04 in
(1017 mb)
SSE 12.7 mph
(SSE 20 kph)
-
07:55
Overcast
73°F / 23°C 73°F / 23°C 100% 30.04 in
(1017 mb)
S 12.7 mph
(S 20 kph)
-
07:35
Overcast
73°F / 23°C 73°F / 23°C 100% 30.04 in
(1017 mb)
SSE 8.1 mph
(SSE 13 kph)
-
07:15
Overcast
73°F / 23°C 73°F / 23°C 100% 30.04 in
(1017 mb)
SSE 12.7 mph
(SSE 20 kph)
-
06:55
Overcast
73°F / 23°C 73°F / 23°C 100% 30.04 in
(1017 mb)
SSE 16.1 mph
(SSE 26 kph)
-
06:35
Overcast
73°F / 23°C 73°F / 23°C 100% 30.04 in
(1017 mb)
SSE 12.7 mph
(SSE 20 kph)
-
06:15
Overcast
Fog
73°F / 23°C 73°F / 23°C 100% 30.01 in
(1016 mb)
S 12.7 mph
(S 20 kph)
- 1/4SM
05:55
Overcast
Fog And Mist
73°F / 23°C 73°F / 23°C 100% 30.01 in
(1016 mb)
S 12.7 mph
(S 20 kph)
- 2SM
05:35
Overcast
Fog And Mist
73°F / 23°C 73°F / 23°C 100% 30.01 in
(1016 mb)
S 11.5 mph
(S 19 kph)
- 2SM
05:15
Overcast
Fog And Mist
73°F / 23°C 73°F / 23°C 100% 30.01 in
(1016 mb)
S 10.4 mph
(S 17 kph)
- 1 1/2SM
04:55
Overcast
Fog And Mist
73°F / 23°C 73°F / 23°C 100% 30.01 in
(1016 mb)
SSE 12.7 mph
(SSE 20 kph)
- 1 1/4SM
04:35
Overcast
Fog And Mist
73°F / 23°C 73°F / 23°C 100% 30.01 in
(1016 mb)
SSE 11.5 mph
(SSE 19 kph)
- 1 3/4SM
04:15
Overcast
Fog And Mist
73°F / 23°C 73°F / 23°C 100% 30.01 in
(1016 mb)
SSE 12.7 mph
(SSE 20 kph)
- 3SM
03:55
Overcast
Fog And Mist
75°F / 24°C 73°F / 23°C 94% 30.01 in
(1016 mb)
S 12.7 mph
(S 20 kph)
- 3SM
03:35
Overcast
Fog And Mist
75°F / 24°C 73°F / 23°C 94% 30.01 in
(1016 mb)
SSE 13.8 mph
(SSE 22 kph)
- 3SM
03:15
Overcast
Fog And Mist
75°F / 24°C 73°F / 23°C 94% 30.01 in
(1016 mb)
SSE 10.4 mph
(SSE 17 kph)
- 3SM
02:55
Mostly Cloudy
Fog And Mist
75°F / 24°C 73°F / 23°C 94% 30.01 in
(1016 mb)
S 11.5 mph
(S 19 kph)
- 3SM
02:35
Overcast
Fog And Mist
75°F / 24°C 73°F / 23°C 94% 30.01 in
(1016 mb)
S 10.4 mph
(S 17 kph)
- 3SM
02:15
Overcast
Fog And Mist
75°F / 24°C 73°F / 23°C 94% 30.01 in
(1016 mb)
SSE 9.2 mph
(SSE 15 kph)
- 3SM
01:55
Overcast
Fog And Mist
75°F / 24°C 73°F / 23°C 94% 30.01 in
(1016 mb)
SSE 8.1 mph
(SSE 13 kph)
- 3SM
01:35
Overcast
Fog And Mist
75°F / 24°C 73°F / 23°C 94% 30.01 in
(1016 mb)
S 9.2 mph
(S 15 kph)
- 3SM
01:15
Mostly Cloudy
Fog And Mist
75°F / 24°C 73°F / 23°C 94% 30.04 in
(1017 mb)
SSE 5.8 mph
(SSE 9 kph)
- 3SM
00:55
Overcast
Fog And Mist
75°F / 24°C 73°F / 23°C 94% 30.04 in
(1017 mb)
S 8.1 mph
(S 13 kph)
- 3SM
00:35
Mostly Cloudy
Fog And Mist
75°F / 24°C 73°F / 23°C 94% 30.04 in
(1017 mb)
S 8.1 mph
(S 13 kph)
- 3SM
00:15
Overcast
Fog And Mist
75°F / 24°C 73°F / 23°C 94% 30.04 in
(1017 mb)
S 11.5 mph
(S 19 kph)
- 4SM
Time Weather Temperature Dewpoint Humidity Pressure Winds Precip Visibility


Weather for websites

WeatherForYou.com, LLC is not responsible for any damages or problems caused by this service. Current weather conditions are obtained from the closest station including government and personal stations which may have varying degrees of accuracy. Weather forecasts are derived from the NOAA NDFD. Like all things, this site belongs to Jesus Christ... He just trusts us to maintain it. If you have any questions or comments email webmaster@weatherforyou.com

Copyright © 2016, WeatherForYou.com LLC. All rights reserved.